weather.gov     
National Weather Service

Regional Weather Roundup
NWS Homepage
This page is being discontinued on March 12, 2014.
The same data is available at this site. Please update your bookmarks.
Thank you, and we apologize for the inconvenience.
Please send an email to SR-SRH.Webmaster@noaa.gov with any concerns.


Current Version
Previous Version:    01  02  03  04  05  06  07  08  09  10  11  12  13  14  15  16  17  18  19  20  21  22  23  24  25  26  27  28  29  30  
   31  32  33  34  35  36  37  38  39  40  41  42  43  44  45  46  47  48  49  50  51  52  53  54  55  56  57  58  59  60  
[Printable]
057
ASUS44 KFWD 291903
RWRTX
NORTH TEXAS HOURLY WEATHER ROUNDUP
NATIONAL WEATHER SERVICE FORT WORTH TX
200 PM CDT TUE JUL 29 2014

NOTE: "FAIR" INDICATES FEW OR NO CLOUDS BELOW 12,000 FEET WITH NO
SIGNIFICANT WEATHER AND/OR OBSTRUCTIONS TO VISIBILITY.

TXZ118-119-292000-
DALLAS/FORT WORTH METROPLEX

CITY           SKY/WX    TMP DP  RH WIND       PRES   REMARKS
DFW AIRPORT    LGT RAIN  81  64  56 SW8       30.15F
DALLAS LOVE    CLOUDY    84  63  49 W13       30.14F
FTW MEACHAM    LGT RAIN  78  68  71 N10       30.16F
DAL-EXECUTIVE  LGT RAIN  83  65  54 W9        30.15S
FTW-ALLIANCE   LGT RAIN  70  64  81 SW7       30.16F
FTW-NAS-JRB    LGT RAIN  79  67  66 W6        30.21F
FTW-SPINKS     LGT RAIN  79  66  65 CALM      30.19S
ARLINGTON      CLOUDY    77  66  68 SW6       30.16F
GRAND PRAIRIE  SUNNY     79  61  53 S7        30.17S
ADDISON        CLOUDY    86  59  39 W6        30.15F
MESQUITE       SUNNY     84  61  45 SW3       30.14F
LANCASTER      CLOUDY    83  61  46 CALM      30.16S
$$

TXZ091>094-102>105-117-120-121-131>134-292000-
NORTH CENTRAL TEXAS

CITY           SKY/WX    TMP DP  RH WIND       PRES   REMARKS
SHRMAN/DENISON CLOUDY    89  54  31 CALM      30.15F
GAINESVILLE    CLOUDY    83  62  48 S6        30.18S
BOWIE          CLOUDY    75  65  70 SE3       30.18S
BRIDGEPORT     LGT RAIN  71  64  78 CALM      30.19F
DECATUR        CLOUDY    75  64  69 S7        30.17F
DENTON         CLOUDY    78  65  63 SW7       30.16F
MCKINNEY       CLOUDY    86  60  41 S6        30.14F
ROCKWALL       CLOUDY    85  63  47 W6        30.13F
TERRELL        CLOUDY    89  59  36 CALM      30.13F
WAXAHACHIE     CLOUDY    79  64  60 W5        30.17F
CLEBURNE       CLOUDY    81  64  57 NE9       30.18F
GRANBURY       PTSUNNY   77  68  72 NE9       30.17F
$$

TXZ083>090-098>101-113>116-127>130-139>142-154-155-292000-
WESTERN NORTH TEXAS

CITY           SKY/WX    TMP DP  RH WIND       PRES   REMARKS
WICHITA FALLS  CLOUDY    75  59  57 S5        30.17S
WF-KICKAPOO    CLOUDY    75  58  54 SE5       30.19S
VERNON         CLOUDY    76  65  68 E6        30.20S
ABILENE        MOSUNNY   91  66  43 E8        30.13F HX  93
ABILENE-DYESS  CLOUDY    91  67  45 NE8       30.12F HX  94
BRECKENRIDGE   PTSUNNY   89  56  33 SE9       30.15S HAZE
GRAHAM         PTSUNNY   80  61  53 E9        30.16S
MINERAL WELLS  LGT RAIN  70  62  76 E7        30.16F
STEPHENVILLE   MOSUNNY   85  55  36 E15G22    30.19F
COMANCHE       MOSUNNY   90  65  42 E3        30.14F HX  92
BROWNWOOD      PTSUNNY   91  66  43 S3        30.13F HX  94
COLEMAN        MOSUNNY   91  64  39 SE9       30.13F HX  92
BRADY          SUNNY     93  66  40 CALM      30.12F HX  96
$$

TXZ143>147-156>162-174-175-292000-
CENTRAL TEXAS

CITY           SKY/WX    TMP DP  RH WIND       PRES   REMARKS
WACO           PTSUNNY   91  69  48 NE12      30.11F HX  96
WACO-TSTC      MOSUNNY   88  68  51 NE10      30.12F HX  91
WACO-MCGREGOR  MOSUNNY   91  70  49 NE12G17   30.13F HX  97
HILLSBORO      DRIZZLE   81  65  59 NE7       30.15F
CORSICANA      CLOUDY    84  68  58 NW5       30.14F
MEXIA          LGT RAIN  78  73  84 N7        30.13S
HEARNE         CLOUDY   N/A N/A N/A CALM      30.10F
CAMERON        MOSUNNY   88  73  62 NE8       30.10S HX  96
TEMPLE         PTSUNNY   91  68  46 NE16      30.11F HX  95
KILLEEN        PTSUNNY   91  72  52 VRB5      30.10F HX  98
KILLEEN-SKYLRK MOSUNNY   90  70  51 E8        30.10F HX  95
FORT HOOD      PTSUNNY   94  70  45 CALM      30.10F HX 100
GATESVILLE     PTSUNNY   88  68  51 E10       30.13F HX  91
HAMILTON       MOSUNNY   89  66  46 E10G17    30.16S HX  91
LAMPASAS       PTSUNNY   92  72  53 E10       30.10F HX  99
$$

TXZ095>097-106>112-122>126-135>138-148>153-164>167-292000-
EAST TEXAS

CITY           SKY/WX    TMP DP  RH WIND       PRES   REMARKS
PARIS          SUNNY     88  63  42 E3        30.13F
SULPHUR SPRNGS MOSUNNY   87  58  38 NW3       30.15S
CLARKSVILLE    SUNNY     87  60  39 CALM      30.12F
MOUNT PLEASANT MOSUNNY   89  61  38 NE3       30.13F
GILMER         MOSUNNY   88  66  48 MISG        N/A  HX  90
MINEOLA        PTSUNNY   88  63  42 S3        30.13F
TYLER          MOSUNNY   89  62  40 VRB3      30.11F
LONGVIEW       MOSUNNY   89  62  40 CALM      30.09F
MARSHALL       MOSUNNY   89  64  43 N6        30.12S HX  90
ATHENS         PTSUNNY   82  72  69 W5        30.11S
JACKSONVILLE   MOSUNNY   85  69  57 SW3       30.14S
HENDERSON      SUNNY     87  64  45 S3        30.11F
NACOGDOCHES    MOSUNNY   88  68  51 SE7       30.10F HX  91
LUFKIN         MOSUNNY   91  70  49 E5        30.10F HX  96
$$

SUPPLEMENTAL OBSERVATIONS (CENTRAL)

CITY           SKY/WX    TMP DP  RH WIND       PRES   REMARKS
$$

SUPPLEMENTAL OBSERVATIONS (WEST)

CITY           SKY/WX    TMP DP  RH WIND       PRES   REMARKS
$$

SUPPLEMENTAL OBSERVATIONS (EAST)

CITY           SKY/WX    TMP DP  RH WIND       PRES   REMARKS
$$

SUPPLEMENTAL OBSERVATIONS ARE A COLLECTION OF AUTOMATED INSTRUMENTS
THAT ARE MAINTAINED BY A VARIETY OF FEDERAL AND STATE AGENCIES.
CERTAIN ELEMENTS...SUCH AS HUMIDITY VALUES AND SUSTAINED WIND
SPEEDS...MAY BE APPROXIMATED.





U.S. Dept. of Commerce
NOAA National Weather Service
1325 East West Highway
Silver Spring, MD 20910
E-mail: w-nws.webmaster@noaa.gov
Page last modified: May 16, 2007
NATIONAL WEATHER SERVICE: for Safety, for Work, for Fun - FOR LIFE